When you browse on this site, cookies collect data to enhance your experience and personalize the content and advertising you see.
Visit our Privacy Policy to learn more. By continuing to use the site, you agree to this use of cookies and data.
  • In Portugal
  • List of Countries
  • For 7 days
  • Water Temperature
  • Satellite Maps
  • Weather Map
  • Weather Widgets
  • user-avatar
    Login

    Hourly Weather Abomey

    Today, 19 February, Tuesday

    Time Temperature Precipitation Wind Pressure Humidity
    00:00 +29°C° 0 mm 3 mps 738 mmHg 72%
    01:00 +29°C° 0 mm 2 mps 738 mmHg 73%
    02:00 +29°C° 0 mm 2 mps 737 mmHg 75%
    03:00 +28°C° 0 mm 2 mps 737 mmHg 77%
    04:00 +28°C° 0.2 mm 2 mps 737 mmHg 78%
    05:00 +28°C° 0.2 mm 1 mps 737 mmHg 80%
    06:00 +28°C° 0.2 mm 1 mps 737 mmHg 82%
    07:00 +29°C° 0 mm 1 mps 738 mmHg 73%
    08:00 +31°C° 0 mm 1 mps 738 mmHg 64%
    09:00 +34°C° 0 mm 2 mps 738 mmHg 55%
    10:00 +35°C° 0 mm 1 mps 738 mmHg 46%
    11:00 +39°C° 0 mm 1 mps 738 mmHg 37%
    12:00 +41°C° 0 mm 1 mps 738 mmHg 28%
    13:00 +41°C° 0 mm 1 mps 737 mmHg 27%
    14:00 +40°C° 0 mm 1 mps 736 mmHg 27%
    15:00 +40°C° 0 mm 1 mps 735 mmHg 26%
    16:00 +39°C° 0 mm 2 mps 735 mmHg 30%
    17:00 +38°C° 0 mm 3 mps 735 mmHg 33%
    18:00 +37°C° 0 mm 3 mps 735 mmHg 37%
    19:00 +35°C° 0 mm 4 mps 736 mmHg 46%
    20:00 +33°C° 0 mm 4 mps 737 mmHg 55%
    21:00 +32°C° 0 mm 4 mps 737 mmHg 64%
    22:00 +30°C° 0 mm 4 mps 737 mmHg 66%
    23:00 +30°C° 0 mm 4 mps 737 mmHg 67%

    Tomorrow, 20 February, Wednesday

    Time Temperature Precipitation Wind Pressure Humidity
    00:00 +30°C° 0 mm 4 mps 738 mmHg 69%
    01:00 +29°C° 0 mm 3 mps 737 mmHg 70%
    02:00 +29°C° 0 mm 3 mps 737 mmHg 71%
    03:00 +29°C° 0 mm 3 mps 737 mmHg 73%
    04:00 +29°C° 0 mm 2 mps 737 mmHg 73%
    05:00 +28°C° 0 mm 2 mps 737 mmHg 73%
    06:00 +28°C° 0 mm 2 mps 737 mmHg 73%
    07:00 +30°C° 0 mm 2 mps 738 mmHg 66%
    08:00 +31°C° 0 mm 2 mps 739 mmHg 59%
    09:00 +34°C° 0 mm 2 mps 739 mmHg 52%
    10:00 +37°C° 0 mm 2 mps 739 mmHg 44%
    11:00 +40°C° 0 mm 1 mps 739 mmHg 35%
    12:00 +40°C° 0 mm 0 mps 738 mmHg 27%
    13:00 +40°C° 0 mm 0 mps 737 mmHg 24%
    14:00 +43°C° 0 mm 1 mps 737 mmHg 22%
    15:00 +43°C° 0 mm 1 mps 736 mmHg 20%
    16:00 +41°C° 0 mm 2 mps 736 mmHg 26%
    17:00 +39°C° 0 mm 3 mps 736 mmHg 32%
    18:00 +38°C° 0 mm 4 mps 736 mmHg 38%
    19:00 +35°C° 0 mm 4 mps 737 mmHg 48%
    20:00 +33°C° 0 mm 4 mps 737 mmHg 57%
    21:00 +30°C° 0 mm 4 mps 738 mmHg 67%
    22:00 +30°C° 0 mm 4 mps 738 mmHg 68%
    23:00 +30°C° 0 mm 4 mps 738 mmHg 69%

    Day after tomorrow, 21 February, Thursday

    Time Temperature Precipitation Wind Pressure Humidity
    00:00 +30°C° 0 mm 4 mps 739 mmHg 70%
    01:00 +29°C° 0 mm 4 mps 738 mmHg 72%
    02:00 +29°C° 0 mm 3 mps 738 mmHg 74%
    03:00 +29°C° 0 mm 3 mps 738 mmHg 75%
    04:00 +29°C° 0 mm 3 mps 738 mmHg 76%
    05:00 +29°C° 0 mm 3 mps 738 mmHg 76%
    06:00 +28°C° 0 mm 3 mps 739 mmHg 77%
    07:00 +30°C° 0 mm 3 mps 739 mmHg 71%
    08:00 +31°C° 0 mm 3 mps 740 mmHg 66%
    09:00 +32°C° 0 mm 2 mps 741 mmHg 61%
    10:00 +35°C° 0 mm 2 mps 740 mmHg 54%
    11:00 +37°C° 0 mm 2 mps 740 mmHg 46%
    12:00 +39°C° 0 mm 2 mps 739 mmHg 39%
    13:00 +40°C° 0 mm 2 mps 739 mmHg 34%
    14:00 +41°C° 0 mm 1 mps 738 mmHg 29%
    15:00 +42°C° 0 mm 1 mps 737 mmHg 25%
    16:00 +40°C° 0 mm 2 mps 737 mmHg 29%
    17:00 +39°C° 0 mm 3 mps 737 mmHg 34%
    18:00 +37°C° 0 mm 4 mps 737 mmHg 39%
    19:00 +35°C° 0.1 mm 4 mps 738 mmHg 49%
    20:00 +33°C° 0.1 mm 4 mps 739 mmHg 60%
    21:00 +30°C° 0.1 mm 5 mps 740 mmHg 70%
    22:00 +30°C° 0 mm 5 mps 740 mmHg 72%
    23:00 +29°C° 0 mm 4 mps 740 mmHg 73%

    22 February, Friday

    Time Temperature Precipitation Wind Pressure Humidity
    00:00 +29°C° 0 mm 4 mps 740 mmHg 75%
    01:00 +29°C° 0 mm 4 mps 739 mmHg 76%
    02:00 +29°C° 0 mm 3 mps 739 mmHg 77%
    03:00 +28°C° 0 mm 3 mps 738 mmHg 78%
    04:00 +29°C° 0 mm 3 mps 738 mmHg 77%
    05:00 +29°C° 0 mm 3 mps 739 mmHg 76%
    06:00 +29°C° 0 mm 3 mps 739 mmHg 75%
    07:00 +30°C° 0 mm 3 mps 739 mmHg 71%
    08:00 +31°C° 0 mm 3 mps 740 mmHg 67%
    09:00 +31°C° 0 mm 3 mps 740 mmHg 63%
    10:00 +33°C° 0 mm 3 mps 740 mmHg 60%
    11:00 +34°C° 0 mm 3 mps 739 mmHg 56%
    12:00 +35°C° 0 mm 2 mps 739 mmHg 53%
    13:00 +36°C° 0 mm 2 mps 738 mmHg 50%
    14:00 +36°C° 0 mm 2 mps 737 mmHg 47%
    15:00 +37°C° 0 mm 2 mps 736 mmHg 43%
    16:00 +37°C° 0 mm 3 mps 737 mmHg 45%
    17:00 +36°C° 0 mm 3 mps 737 mmHg 47%
    18:00 +35°C° 0 mm 4 mps 737 mmHg 49%
    19:00 +34°C° 0.2 mm 4 mps 738 mmHg 56%
    20:00 +32°C° 0.2 mm 4 mps 738 mmHg 63%
    21:00 +30°C° 0.2 mm 4 mps 739 mmHg 70%
    22:00 +30°C° 0 mm 4 mps 739 mmHg 72%
    23:00 +29°C° 0 mm 4 mps 739 mmHg 74%

    23 February, Saturday

    Time Temperature Precipitation Wind Pressure Humidity
    00:00 +29°C° 0 mm 4 mps 738 mmHg 76%
    01:00 +29°C° 0 mm 4 mps 738 mmHg 78%
    02:00 +28°C° 0 mm 4 mps 737 mmHg 79%
    03:00 +28°C° 0 mm 4 mps 737 mmHg 81%
    04:00 +28°C° 0 mm 3 mps 737 mmHg 80%
    05:00 +28°C° 0 mm 3 mps 738 mmHg 79%
    06:00 +28°C° 0 mm 2 mps 738 mmHg 79%
    07:00 +29°C° 0.1 mm 3 mps 739 mmHg 76%
    08:00 +29°C° 0.1 mm 3 mps 739 mmHg 74%
    09:00 +30°C° 0.1 mm 3 mps 740 mmHg 71%
    10:00 +31°C° 0.1 mm 3 mps 739 mmHg 66%
    11:00 +33°C° 0.1 mm 3 mps 739 mmHg 61%
    12:00 +34°C° 0.1 mm 2 mps 738 mmHg 56%
    13:00 +35°C° 0.3 mm 2 mps 737 mmHg 52%
    14:00 +36°C° 0.3 mm 2 mps 737 mmHg 48%
    15:00 +37°C° 0.3 mm 2 mps 736 mmHg 45%
    16:00 +36°C° 0.3 mm 3 mps 736 mmHg 49%
    17:00 +35°C° 0.3 mm 3 mps 736 mmHg 53%
    18:00 +33°C° 0.3 mm 3 mps 737 mmHg 57%
    19:00 +31°C° 0 mm 3 mps 737 mmHg 62%
    20:00 +32°C° 0 mm 4 mps 737 mmHg 67%
    21:00 +30°C° 0 mm 4 mps 738 mmHg 71%
    22:00 +29°C° 0 mm 3 mps 738 mmHg 73%
    23:00 +29°C° 0 mm 3 mps 737 mmHg 74%

    24 February, Sunday

    Time Temperature Precipitation Wind Pressure Humidity
    00:00 +29°C° 0 mm 3 mps 737 mmHg 76%
    01:00 +28°C° 0 mm 3 mps 737 mmHg 76%
    02:00 +28°C° 0 mm 3 mps 736 mmHg 76%
    03:00 +28°C° 0 mm 3 mps 736 mmHg 77%
    04:00 +28°C° 0 mm 2 mps 736 mmHg 78%
    05:00 +27°C° 0 mm 2 mps 737 mmHg 79%
    06:00 +27°C° 0 mm 2 mps 737 mmHg 80%
    07:00 +29°C° 0 mm 2 mps 737 mmHg 73%
    08:00 +30°C° 0 mm 3 mps 738 mmHg 66%
    09:00 +33°C° 0 mm 3 mps 739 mmHg 59%
    10:00 +35°C° 0 mm 3 mps 738 mmHg 52%
    11:00 +37°C° 0 mm 3 mps 738 mmHg 45%
    12:00 +38°C° 0 mm 3 mps 737 mmHg 38%
    13:00 +38°C° 0 mm 2 mps 736 mmHg 35%
    14:00 +39°C° 0 mm 2 mps 736 mmHg 33%
    15:00 +39°C° 0 mm 1 mps 735 mmHg 31%
    16:00 +38°C° 0.1 mm 2 mps 735 mmHg 36%
    17:00 +37°C° 0.1 mm 3 mps 736 mmHg 41%
    18:00 +36°C° 0.1 mm 4 mps 736 mmHg 46%
    19:00 +34°C° 0.3 mm 4 mps 736 mmHg 54%
    20:00 +32°C° 0.3 mm 4 mps 736 mmHg 62%
    21:00 +29°C° 0.3 mm 4 mps 737 mmHg 70%
    22:00 +29°C° 0 mm 4 mps 737 mmHg 70%
    23:00 +29°C° 0 mm 3 mps 737 mmHg 71%
    Show more